Home   Weather   Calexico   Past weeks
Flag for USA

Past Weather in Calexico, California, USA — Yesterday and Last 2 Weeks

Now
83 °F

Sunny.


Feels Like: 90 °F
Forecast: 104 / 76 °F
Wind: 3 mph from West

Location: Imperial County Airport

Current Time: Sep 16, 2019 at 9:26:24 am

Latest Report: Sep 16, 2019 at 8:53 am


Visibility: 10 mi

Pressure: 29.83 "Hg

Humidity: 77%

Dew Point: 75 °F

Location of CalexicoLocation

Past Weather in Calexico — Graph

°F

Calexico Temperature Yesterday

Maximum temperature yesterday: 103 °F (at 4:53 pm)
Minimum temperature yesterday: 77 °F (at 4:53 am)
Average temperature yesterday: 91 °F

High & Low Weather Summary for the Past Weeks

 TemperatureHumidityPressure
High112 °F (Sep 4, 3:53 pm)85% (Sep 16, 6:53 am)29.96 "Hg (Sep 16, 6:53 am)
Low68 °F (Sep 12, 3:53 am)5% (Sep 8, 1:53 pm)29.62 "Hg (Sep 8, 4:53 pm)
Average91 °F34%29.78 "Hg
* Reported Sep 1 7:53 am — Sep 16 7:53 am, Calexico. Weather by CustomWeather, © 2019

Note: Actual official high and low records may vary slightly from our data, if they occured in-between our weather recording intervals... More about our weather records

Advertising

Calexico Weather History for the Previous 24 Hours

Scroll right to see more
 ConditionsComfort  
Time TempWeatherWind HumidityBarometerVisibility
7:53 am
Mon, Sep 16
76 °FSunny.No wind82%29.82 "Hg10 mi
6:53 am80 °FSunny.3 mph85%29.80 "Hg10 mi
5:53 am81 °FClear.6 mph82%29.79 "Hg10 mi
4:53 am78 °FClear.5 mph84%29.77 "Hg10 mi
3:53 am81 °FClear.5 mph67%29.77 "Hg10 mi
2:53 am85 °FClear.3 mph21%29.77 "Hg10 mi
1:53 am85 °FClear.3 mph22%29.77 "Hg10 mi
12:53 am85 °FClear.5 mph21%29.77 "Hg10 mi
11:53 pm
Sun, Sep 15
85 °FClear.8 mph24%29.76 "Hg10 mi
10:53 pm85 °FClear.8 mph26%29.75 "Hg10 mi
9:53 pm86 °FClear.12 mph26%29.76 "Hg10 mi
8:53 pm89 °FClear.10 mph22%29.75 "Hg10 mi
7:53 pm93 °FClear.8 mph44%29.72 "Hg10 mi
6:53 pm94 °FClear.14 mph44%29.69 "Hg10 mi
5:53 pm101 °FSunny.13 mph31%29.69 "Hg10 mi
4:53 pm103 °FSunny.13 mph29%29.69 "Hg10 mi
3:53 pm102 °FSunny.10 mph27%29.70 "Hg10 mi
2:53 pm102 °FSunny.9 mph30%29.73 "Hg10 mi
1:53 pm101 °FSunny.8 mph28%29.76 "Hg10 mi
12:53 pm100 °FSunny.8 mph32%29.80 "Hg10 mi
11:53 am97 °FSunny.9 mph40%29.82 "Hg10 mi
10:53 am92 °FSunny.13 mph46%29.84 "Hg10 mi
9:53 am93 °FSunny.10 mph52%29.85 "Hg10 mi
Weather by CustomWeather, © 2019

See weather overview